Weather History for Ann Arbor, MI

Change the Weather History Date:

Sunday, October 13, 2013

  Actual Average Record
Temperature  
Mean Temperature 13 °C -  
Max Temperature 21 °C 15 °C 26 °C (2008)
Min Temperature 5 °C 1 °C -5 °C (2012)
Degree Days  
Heating Degree Days 8    
Growing Degree Days 6 (Base 50)    
Moisture  
Dew Point 8 °C    
Average Humidity 76    
Maximum Humidity 100    
Minimum Humidity 32    
Precipitation  
Precipitation 0.00 mm - - ()
Sea Level Pressure  
Sea Level Pressure 1023 hPa    
Wind  
Wind Speed 5 km/h (NW)    
Max Wind Speed 19 km/h    
Max Gust Speed 27 km/h    
Visibility 10 kilometers    
Events Fog    
Averages and records for this station are not official NWS values.
T = Trace of Precipitation, MM = Missing Value Source: NWS Daily Summary

Daily Weather History Graph

Daily Weather History Graph

Search for Another Location

Airport:

Trip Planner

Search our weather history database for the weather conditions in past years. The results will help you decide how hot, cold, wet, or windy it might be!

Date:

Astronomy

Oct. 13, 2013 Rise Set
Actual Time 7:45 AM EDT 6:55 PM EDT
Civil Twilight 7:17 AM EDT 7:24 PM EDT
Nautical Twilight 6:44 AM EDT 7:56 PM EDT
Astronomical Twilight 6:12 AM EDT 8:28 PM EDT
Moon 3:52 PM EDT (10/13) 1:48 AM EDT (10/13)
Length of Visible Light 12h 06m
Length of Day
11h 10m
Waxing Gibbous, 69% of the Moon is Illuminated
Oct 13
Waxing Gibbous
Oct 18
Full
Oct 26
Last Quarter
Nov 3
New
Nov 10
First Quarter

Hourly Weather History & Observations

Time (EDT) Temp. Windchill Dew Point Humidity Pressure Visibility Wind Dir Wind Speed Gust Speed Precip Events Conditions
12:01 AM 12.0 °C - 12.0 °C 100% 1019.2 hPa 2.8 km Calm Calm - N/A   Scattered Clouds
12:04 AM 12.0 °C - 12.0 °C 100% 1019.2 hPa 4.8 km Calm Calm - N/A   Scattered Clouds
12:08 AM 11.0 °C - 11.0 °C 100% 1018.8 hPa 2.0 km Calm Calm - N/A   Scattered Clouds
12:12 AM 11.0 °C - 11.0 °C 100% 1019.2 hPa 0.8 km Calm Calm - N/A Fog Fog
12:26 AM 12.0 °C - 11.0 °C 94% 1018.8 hPa 0.4 km Calm Calm - N/A Fog Fog
12:53 AM 10.0 °C - 9.4 °C 96% 1018.8 hPa 0.4 km Calm Calm - N/A Fog Fog
1:23 AM 11.0 °C - 11.0 °C 100% 1019.5 hPa 2.4 km WNW 5.6 km/h / 1.5 m/s - N/A   Scattered Clouds
1:30 AM 11.0 °C - 11.0 °C 100% 1019.5 hPa 1.2 km Calm Calm - N/A   Mist
1:38 AM 12.0 °C - 11.0 °C 94% 1019.5 hPa 0.4 km Calm Calm - N/A Fog Fog
1:53 AM 11.7 °C - 11.1 °C 96% 1019.8 hPa 0.4 km WNW 5.6 km/h / 1.5 m/s - N/A Fog Fog
2:07 AM 11.0 °C - 11.0 °C 100% 1019.9 hPa 0.4 km Calm Calm - N/A Fog Fog
2:46 AM 12.0 °C - 12.0 °C 100% 1020.2 hPa 0.8 km Calm Calm - N/A Fog Fog
2:53 AM 12.2 °C - 11.7 °C 97% 1020.1 hPa 0.8 km Calm Calm - N/A Fog Fog
3:08 AM 13.0 °C - 13.0 °C 100% 1020.5 hPa 2.4 km West 7.4 km/h / 2.1 m/s - N/A   Overcast
3:15 AM 13.0 °C - 13.0 °C 100% 1020.5 hPa 3.2 km WNW 7.4 km/h / 2.1 m/s - N/A   Overcast
3:25 AM 14.0 °C - 14.0 °C 100% 1020.5 hPa 6.4 km WNW 5.6 km/h / 1.5 m/s - N/A   Overcast
3:53 AM 15.0 °C - 14.4 °C 96% 1020.4 hPa 12.9 km WNW 11.1 km/h / 3.1 m/s - N/A   Mostly Cloudy
4:53 AM 15.6 °C - 13.9 °C 90% 1021.0 hPa 11.3 km NW 11.1 km/h / 3.1 m/s - N/A   Partly Cloudy
5:53 AM 15.0 °C - 12.2 °C 83% 1022.0 hPa 16.1 km NW 18.5 km/h / 5.1 m/s - N/A   Mostly Cloudy
6:53 AM 14.4 °C - 10.6 °C 78% 1023.2 hPa 16.1 km NNW 14.8 km/h / 4.1 m/s - N/A   Clear
7:53 AM 13.3 °C - 8.9 °C 75% 1023.6 hPa 16.1 km NNW 16.7 km/h / 4.6 m/s - N/A   Clear
8:53 AM 13.9 °C - 10.0 °C 77% 1024.5 hPa 16.1 km NNW 9.3 km/h / 2.6 m/s - N/A   Clear
9:53 AM 15.0 °C - 7.2 °C 60% 1025.3 hPa 16.1 km North 16.7 km/h / 4.6 m/s - N/A   Clear
10:53 AM 16.7 °C - 4.4 °C 44% 1025.9 hPa 16.1 km NW 18.5 km/h / 5.1 m/s 27.8 km/h / 7.7 m/s N/A   Clear
11:53 AM 17.8 °C - 3.3 °C 38% 1026.0 hPa 16.1 km North 18.5 km/h / 5.1 m/s - N/A   Clear
12:53 PM 18.3 °C - 3.3 °C 37% 1026.0 hPa 16.1 km NNW 13.0 km/h / 3.6 m/s - N/A   Clear
1:53 PM 19.4 °C - 3.3 °C 34% 1025.4 hPa 16.1 km NW 7.4 km/h / 2.1 m/s - N/A   Clear
2:53 PM 20.0 °C - 2.8 °C 32% 1025.1 hPa 16.1 km NNW 11.1 km/h / 3.1 m/s - N/A   Clear
3:53 PM 20.0 °C - 3.3 °C 33% 1025.0 hPa 16.1 km West 13.0 km/h / 3.6 m/s - N/A   Clear
4:53 PM 20.0 °C - 3.3 °C 33% 1025.1 hPa 16.1 km NNW 18.5 km/h / 5.1 m/s - N/A   Clear
5:53 PM 18.9 °C - 1.7 °C 32% 1025.2 hPa 16.1 km NNW 13.0 km/h / 3.6 m/s - N/A   Clear
6:53 PM 16.1 °C - 2.8 °C 41% 1025.7 hPa 16.1 km North 9.3 km/h / 2.6 m/s - N/A   Clear
7:53 PM 8.3 °C - 3.3 °C 71% 1026.5 hPa 16.1 km NW 5.6 km/h / 1.5 m/s - N/A   Clear
8:53 PM 7.2 °C - 4.4 °C 82% 1027.0 hPa 16.1 km Calm Calm - N/A   Clear
9:53 PM 12.2 °C - 5.0 °C 62% 1027.3 hPa 16.1 km NNW 9.3 km/h / 2.6 m/s - N/A   Clear
10:53 PM 11.1 °C - 5.0 °C 66% 1027.5 hPa 16.1 km North 5.6 km/h / 1.5 m/s - N/A   Clear
11:53 PM 5.0 °C 3.9 °C 2.8 °C 86% 1027.7 hPa 16.1 km NW 5.6 km/h / 1.5 m/s - N/A   Clear